Weather History for McAllen, TX

Change the Weather History Date:

Thursday, January 3, 2013

  Actual Average Record
Temperature  
Mean Temperature 46 °F 60 °F  
Max Temperature 50 °F 70 °F 89 °F (1982)
Min Temperature 42 °F 50 °F 24 °F (1979)
Degree Days  
Heating Degree Days 19 7  
Month to date heating degree days 21  
Since 1 July heating degree days 258  
Cooling Degree Days 0 2  
Month to date cooling degree days 6  
Year to date cooling degree days 6  
Moisture  
Dew Point 36 °F    
Average Humidity 66    
Maximum Humidity 82    
Minimum Humidity 54    
Precipitation  
Precipitation 0.00 in 0.03 in 0.28 in (2007)
Month to date precipitation 0.09  
Year to date precipitation 0.09  
Sea Level Pressure  
Sea Level Pressure 30.34 in    
Wind  
Wind Speed 11 mph (NNW)    
Max Wind Speed 16 mph    
Max Gust Speed 18 mph    
Visibility 10 miles    
Events      
T = Trace of Precipitation, MM = Missing Value Source: NWS Daily Summary

Daily Weather History Graph

Daily Weather History Graph

Search for Another Location

Airport:

Trip Planner

Search our weather history database for the weather conditions in past years. The results will help you decide how hot, cold, wet, or windy it might be!

Date:

Astronomy

Jan. 03, 2013 Rise Set
Actual Time 7:21 AM CST 5:54 PM CST
Civil Twilight 6:55 AM CST 6:19 PM CST
Nautical Twilight 6:27 AM CST 6:48 PM CST
Astronomical Twilight 5:59 AM CST 7:16 PM CST
Moon 11:50 PM CST (1/3) 11:10 AM CST (1/3)
Length of Visible Light 11h 23m
Length of Day
10h 33m
Waning Gibbous, 65% of the Moon is Illuminated
Jan 3
Waning Gibbous
Jan 4
Last Quarter
Jan 11
New
Jan 18
First Quarter
Jan 26
Full

Hourly Weather History & Observations

Time (CST) Temp. Windchill Dew Point Humidity Pressure Visibility Wind Dir Wind Speed Gust Speed Precip Events Conditions
12:53 AM 43.0 °F 37.2 °F 37.9 °F 82% 30.29 in 10.0 mi NNW 10.4 mph - N/A   Overcast
1:53 AM 43.0 °F 37.7 °F 37.9 °F 82% 30.29 in 10.0 mi NNW 9.2 mph - N/A   Overcast
2:32 AM 42.8 °F 36.2 °F 37.4 °F 81% 30.29 in 10.0 mi North 12.7 mph - N/A   Overcast
2:53 AM 43.0 °F 36.4 °F 37.0 °F 80% 30.28 in 10.0 mi North 12.7 mph - N/A   Overcast
3:53 AM 44.1 °F 39.0 °F 37.0 °F 76% 30.29 in 10.0 mi North 9.2 mph - N/A   Overcast
4:53 AM 44.1 °F 37.7 °F 37.0 °F 76% 30.29 in 10.0 mi North 12.7 mph - N/A   Overcast
5:53 AM 44.1 °F 38.6 °F 37.0 °F 76% 30.30 in 10.0 mi North 10.4 mph - N/A   Overcast
6:53 AM 44.1 °F 37.7 °F 36.0 °F 73% 30.32 in 10.0 mi North 12.7 mph - N/A   Overcast
7:53 AM 44.1 °F 38.1 °F 36.0 °F 73% 30.34 in 10.0 mi North 11.5 mph - N/A   Overcast
8:36 AM 44.6 °F 39.2 °F 35.6 °F 71% 30.37 in 10.0 mi North 10.4 mph - N/A   Overcast
8:53 AM 45.0 °F 39.7 °F 36.0 °F 71% 30.37 in 10.0 mi North 10.4 mph - N/A   Overcast
9:26 AM 44.6 °F 38.4 °F 35.6 °F 71% 30.37 in 10.0 mi North 12.7 mph - N/A   Overcast
9:53 AM 46.0 °F 40.6 °F 36.0 °F 68% 30.38 in 10.0 mi NNW 11.5 mph - N/A   Overcast
10:32 AM 46.4 °F 40.7 °F 37.4 °F 71% 30.39 in 10.0 mi NNW 12.7 mph - N/A   Overcast
10:53 AM 46.9 °F - 37.0 °F 68% 30.39 in 10.0 mi NNW 12.7 mph - N/A   Overcast
11:53 AM 48.0 °F - 37.0 °F 66% 30.38 in 10.0 mi NNW 10.4 mph - N/A   Overcast
12:53 PM 48.9 °F - 37.0 °F 64% 30.34 in 10.0 mi NW 12.7 mph - N/A   Overcast
1:13 PM 48.2 °F - 35.6 °F 62% 30.33 in 10.0 mi North 16.1 mph - N/A   Overcast
1:45 PM 48.2 °F - 35.6 °F 62% 30.33 in 10.0 mi NNW 12.7 mph - N/A   Overcast
1:53 PM 50.0 °F - 36.0 °F 59% 30.33 in 10.0 mi NNW 10.4 mph - N/A   Overcast
2:01 PM 48.2 °F - 33.8 °F 58% 30.33 in 10.0 mi North 11.5 mph - N/A   Overcast
2:09 PM 50.0 °F - 35.6 °F 58% 30.33 in 10.0 mi NNW 10.4 mph - N/A   Overcast
2:53 PM 50.0 °F - 35.1 °F 57% 30.33 in 10.0 mi NNW 10.4 mph - N/A   Overcast
3:53 PM 50.0 °F - 35.1 °F 57% 30.32 in 10.0 mi NNW 11.5 mph - N/A   Overcast
4:38 PM 50.0 °F - 35.6 °F 58% 30.34 in 10.0 mi North 13.8 mph - N/A   Overcast
4:53 PM 50.0 °F - 34.0 °F 54% 30.35 in 10.0 mi North 13.8 mph - N/A   Overcast
5:53 PM 48.9 °F - 34.0 °F 56% 30.36 in 10.0 mi NNW 13.8 mph - N/A   Overcast
6:53 PM 48.9 °F - 33.1 °F 54% 30.38 in 10.0 mi North 13.8 mph 18.4 mph N/A   Overcast
7:53 PM 48.9 °F - 33.1 °F 54% 30.39 in 10.0 mi North 16.1 mph - N/A   Overcast
8:53 PM 48.0 °F - 34.0 °F 58% 30.39 in 10.0 mi NNW 6.9 mph - N/A   Overcast
9:53 PM 48.0 °F - 35.1 °F 61% 30.38 in 10.0 mi NNW 5.8 mph - N/A   Overcast
10:53 PM 48.0 °F - 34.0 °F 58% 30.37 in 10.0 mi NNW 6.9 mph - N/A   Overcast
11:53 PM 48.0 °F - 33.1 °F 56% 30.37 in 10.0 mi NW 8.1 mph - N/A   Overcast